User: anonymous   Login
Location: Oshawa
(43.9000°N, 78.8670°W)
Time: 14:21:15
(UTC-04:00)
Language:

Iridium 54 - Orbit

View from above orbital plane
View from above orbital plane
View from above satellite
View from above satellite

Ground track
Ground track

The orbit data is extracted from the following two-line orbital elements,

1 25171U 98010C   18114.39497684  .00000157  00000-0  49039-4 0  9991
2 25171  86.4011 220.2998 0002199  96.7784 263.3662 14.34217337 56534
Epoch (UTC): 24 April 2018 09:28:45
Eccentricity: 0.0002199
inclination: 86.4011°
perigee height: 776 km
apogee height: 779 km
right ascension of ascending node: 220.2998°
argument of perigee: 96.7784°
revolutions per day: 14.34217337
mean anomaly at epoch: 263.3662°
orbit number at epoch: 5653

The dashed part of the orbit path shows where the satellite is in the earth's shadow,  

DLR